Location: Lubbock
(33.5779°N, 101.8552°W)
Time: 14:44:30
(UTC-05:00)

ISS - Visible Passes

Search period start: 28 September 2020 00:00
Search period end: 08 October 2020 00:00
Orbit: 419 x 421 km, 51.6° (Epoch: 29 September)

Date Brightness Start Highest point End Pass type
(mag) Time Alt. Az. Time Alt. Az. Time Alt. Az.
02 Oct -1.2 21:07:20 10° N 21:08:09 13° N 21:08:09 13° N visible
03 Oct -1.3 20:21:10 10° NNE 20:21:54 11° NNE 20:22:38 10° NE visible
04 Oct -2.1 21:08:41 10° NNW 21:10:34 27° N 21:10:34 27° N visible
05 Oct -2.3 20:21:40 10° NNW 20:24:27 24° NE 20:25:25 21° ENE visible
05 Oct -0.2 21:58:20 10° WNW 21:58:25 10° WNW 21:58:25 10° WNW visible
06 Oct -2.7 21:10:42 10° NW 21:13:24 45° W 21:13:24 45° W visible
07 Oct -3.9 20:23:19 10° NW 20:26:41 77° NE 20:28:33 24° SE visible
